TimeCST,TemperatureF,Dew PointF,Humidity,Sea Level PressureIn,VisibilityMPH,Wind Direction,Wind SpeedMPH,Gust SpeedMPH,PrecipitationIn,Events,Conditions,WindDirDegrees,DateUTC
12:15 AM,44.6,44.6,100,29.94,1.2,East,4.6,-,N/A,,Mist,80,2013-02-05 06:15:00
12:35 AM,46.4,44.6,93,29.94,1.0,NE,5.8,-,N/A,,Overcast,50,2013-02-05 06:35:00
12:55 AM,46.4,46.4,100,29.93,0.5,ENE,5.8,-,N/A,Fog,Fog,70,2013-02-05 06:55:00
1:15 AM,48.2,46.4,93,29.93,0.2,ENE,5.8,-,N/A,Fog,Fog,60,2013-02-05 07:15:00
1:35 AM,48.2,48.2,100,29.93,0.2,East,4.6,-,N/A,Fog,Fog,80,2013-02-05 07:35:00
1:55 AM,48.2,48.2,100,29.93,0.2,NE,4.6,-,N/A,Fog,Fog,50,2013-02-05 07:55:00
2:15 AM,50.0,48.2,94,29.93,0.2,ENE,5.8,-,N/A,Fog,Fog,70,2013-02-05 08:15:00
2:35 AM,50.0,48.2,94,29.92,0.2,ENE,5.8,-,N/A,Fog,Fog,70,2013-02-05 08:35:00
2:55 AM,50.0,48.2,94,29.92,0.2,ENE,4.6,-,N/A,Fog,Fog,70,2013-02-05 08:55:00
3:15 AM,50.0,48.2,94,29.92,0.2,ENE,6.9,-,N/A,Fog,Fog,70,2013-02-05 09:15:00
3:35 AM,50.0,48.2,94,29.91,0.2,East,5.8,-,N/A,Fog,Fog,80,2013-02-05 09:35:00
3:55 AM,50.0,48.2,94,29.92,0.2,East,4.6,-,N/A,Fog,Fog,80,2013-02-05 09:55:00
4:15 AM,50.0,48.2,94,29.92,0.2,ENE,5.8,-,N/A,Fog,Fog,70,2013-02-05 10:15:00
4:35 AM,50.0,48.2,94,29.92,0.2,ENE,5.8,-,N/A,Fog,Fog,60,2013-02-05 10:35:00
4:55 AM,50.0,48.2,94,29.93,0.2,ENE,4.6,-,N/A,Fog,Fog,60,2013-02-05 10:55:00
5:15 AM,50.0,48.2,94,29.93,0.2,ENE,3.5,-,N/A,Fog,Fog,60,2013-02-05 11:15:00
5:35 AM,50.0,48.2,94,29.94,0.2,NE,3.5,-,N/A,Fog,Fog,50,2013-02-05 11:35:00
5:55 AM,50.0,50.0,100,29.95,0.2,NNE,3.5,-,N/A,Fog,Fog,30,2013-02-05 11:55:00
6:15 AM,50.0,50.0,100,29.96,0.2,NNE,4.6,-,N/A,Fog,Fog,30,2013-02-05 12:15:00
6:35 AM,50.0,50.0,100,29.97,0.5,NNE,3.5,-,N/A,Fog,Fog,30,2013-02-05 12:35:00
6:55 AM,50.0,50.0,100,29.97,0.5,NNE,5.8,-,N/A,Fog,Fog,20,2013-02-05 12:55:00
7:15 AM,50.0,50.0,100,29.98,0.5,NE,3.5,-,N/A,Fog,Fog,50,2013-02-05 13:15:00
7:35 AM,50.0,50.0,100,29.97,0.5,Calm,Calm,-,N/A,Fog,Fog,0,2013-02-05 13:35:00
7:55 AM,50.0,50.0,100,29.99,0.2,NE,5.8,-,N/A,Fog,Fog,50,2013-02-05 13:55:00
8:15 AM,51.8,50.0,94,29.99,0.2,East,4.6,-,N/A,Fog,Fog,90,2013-02-05 14:15:00
8:35 AM,51.8,51.8,100,30.00,0.5,East,4.6,-,N/A,Fog,Fog,80,2013-02-05 14:35:00
8:55 AM,51.8,51.8,100,30.00,0.2,East,6.9,-,N/A,Fog,Fog,80,2013-02-05 14:55:00
9:15 AM,51.8,51.8,100,30.01,0.2,East,5.8,-,N/A,Fog,Fog,90,2013-02-05 15:15:00
9:35 AM,53.6,51.8,94,30.02,0.2,ESE,6.9,-,N/A,Fog,Fog,110,2013-02-05 15:35:00
10:15 AM,53.6,53.6,100,30.03,1.5,East,6.9,-,N/A,,Overcast,100,2013-02-05 16:15:00
10:35 AM,53.6,53.6,100,30.04,1.5,ESE,8.1,-,N/A,,Overcast,110,2013-02-05 16:35:00
10:55 AM,53.6,53.6,100,30.04,4.0,East,6.9,-,N/A,,Overcast,100,2013-02-05 16:55:00
11:15 AM,53.6,53.6,100,30.04,4.0,East,4.6,-,N/A,,Overcast,90,2013-02-05 17:15:00
11:35 AM,55.4,55.4,100,30.04,7.0,East,6.9,-,N/A,,Overcast,100,2013-02-05 17:35:00
11:55 AM,55.4,55.4,100,30.03,7.0,ESE,5.8,-,N/A,,Overcast,110,2013-02-05 17:55:00
12:15 PM,55.4,55.4,100,30.03,5.0,East,4.6,-,N/A,,Overcast,100,2013-02-05 18:15:00
12:35 PM,55.4,55.4,100,30.03,5.0,East,4.6,-,N/A,,Overcast,100,2013-02-05 18:35:00
12:55 PM,55.4,55.4,100,30.02,5.0,ESE,3.5,-,N/A,,Overcast,120,2013-02-05 18:55:00
1:15 PM,57.2,55.4,94,30.00,5.0,South,3.5,-,N/A,,Overcast,170,2013-02-05 19:15:00
1:35 PM,59.0,55.4,88,30.00,7.0,East,4.6,-,N/A,,Overcast,100,2013-02-05 19:35:00
1:55 PM,59.0,53.6,82,30.00,7.0,ESE,4.6,-,N/A,,Overcast,120,2013-02-05 19:55:00
2:15 PM,57.2,53.6,88,30.00,7.0,ESE,5.8,-,N/A,,Overcast,120,2013-02-05 20:15:00
2:35 PM,59.0,53.6,82,30.00,7.0,NE,6.9,-,N/A,,Overcast,50,2013-02-05 20:35:00
2:55 PM,59.0,53.6,82,29.99,7.0,East,4.6,-,N/A,,Overcast,80,2013-02-05 20:55:00
3:15 PM,59.0,53.6,82,29.99,7.0,NE,5.8,-,N/A,,Overcast,50,2013-02-05 21:15:00
3:35 PM,59.0,53.6,82,29.99,7.0,East,5.8,-,N/A,,Overcast,90,2013-02-05 21:35:00
3:55 PM,59.0,55.4,88,29.99,7.0,ENE,3.5,-,N/A,,Overcast,70,2013-02-05 21:55:00
4:15 PM,59.0,53.6,82,29.99,7.0,NE,5.8,-,N/A,,Overcast,40,2013-02-05 22:15:00
4:35 PM,59.0,53.6,82,30.00,10.0,East,5.8,-,N/A,,Overcast,90,2013-02-05 22:35:00
4:55 PM,59.0,53.6,82,30.00,10.0,ENE,6.9,-,N/A,,Overcast,70,2013-02-05 22:55:00
5:15 PM,59.0,53.6,82,30.00,10.0,ENE,5.8,-,N/A,,Overcast,70,2013-02-05 23:15:00
5:35 PM,59.0,53.6,82,30.00,7.0,ENE,5.8,-,N/A,,Overcast,70,2013-02-05 23:35:00
5:55 PM,57.2,53.6,88,30.00,7.0,East,3.5,-,N/A,,Overcast,80,2013-02-05 23:55:00
6:15 PM,57.2,53.6,88,30.00,10.0,ENE,3.5,-,N/A,,Overcast,60,2013-02-06 00:15:00
6:35 PM,57.2,53.6,88,30.00,10.0,ENE,3.5,-,N/A,,Overcast,70,2013-02-06 00:35:00
6:55 PM,55.4,53.6,94,30.01,10.0,ENE,5.8,-,N/A,,Overcast,70,2013-02-06 00:55:00
7:15 PM,53.6,51.8,94,30.01,7.0,East,4.6,-,N/A,,Mostly Cloudy,80,2013-02-06 01:15:00
7:35 PM,51.8,50.0,94,30.02,5.0,SE,3.5,-,N/A,,Scattered Clouds,140,2013-02-06 01:35:00
7:55 PM,51.8,50.0,94,30.03,4.0,SE,3.5,-,N/A,,Scattered Clouds,140,2013-02-06 01:55:00
8:15 PM,51.8,51.8,100,30.03,4.0,Calm,Calm,-,N/A,,Overcast,0,2013-02-06 02:15:00
8:35 PM,51.8,51.8,100,30.03,4.0,Calm,Calm,-,N/A,,Overcast,0,2013-02-06 02:35:00
8:55 PM,51.8,51.8,100,30.03,3.0,Calm,Calm,-,N/A,,Overcast,0,2013-02-06 02:55:00
9:15 PM,51.8,50.0,94,30.04,2.0,Calm,Calm,-,N/A,,Overcast,0,2013-02-06 03:15:00
9:35 PM,51.8,50.0,94,30.04,2.5,NE,5.8,-,N/A,,Mostly Cloudy,50,2013-02-06 03:35:00
9:55 PM,50.0,50.0,100,30.03,2.0,NE,3.5,-,N/A,,Scattered Clouds,40,2013-02-06 03:55:00
10:15 PM,50.0,50.0,100,30.03,1.2,NE,4.6,-,N/A,,Mostly Cloudy,40,2013-02-06 04:15:00
10:35 PM,50.0,50.0,100,30.03,0.2,Calm,Calm,-,N/A,Fog,Fog,0,2013-02-06 04:35:00
10:55 PM,50.0,48.2,94,30.03,0.2,East,3.5,-,N/A,Fog,Fog,80,2013-02-06 04:55:00
11:15 PM,48.2,48.2,100,30.03,0.2,Calm,Calm,-,N/A,Fog,Fog,0,2013-02-06 05:15:00
11:35 PM,48.2,46.4,93,30.03,0.2,Calm,Calm,-,N/A,Fog,Fog,0,2013-02-06 05:35:00
11:55 PM,46.4,46.4,100,30.04,0.2,Calm,Calm,-,N/A,Fog,Fog,0,2013-02-06 05:55:00